TimeMDT,TemperatureF,Dew PointF,Humidity,Sea Level PressureIn,VisibilityMPH,Wind Direction,Wind SpeedMPH,Gust SpeedMPH,PrecipitationIn,Events,Conditions,WindDirDegrees,DateUTC
12:55 AM,39.0,30.9,73,30.32,10.0,NNW,10.4,-,0.00,Rain,Light Rain,330,2011-11-02 06:55:00
1:55 AM,39.9,30.9,70,30.32,10.0,NNW,12.7,-,0.00,,Overcast,340,2011-11-02 07:55:00
2:55 AM,39.9,27.0,60,30.35,10.0,North,15.0,-,N/A,,Overcast,350,2011-11-02 08:55:00
3:55 AM,39.0,25.0,57,30.37,10.0,North,10.4,-,N/A,,Overcast,360,2011-11-02 09:55:00
4:55 AM,36.0,23.0,59,30.40,10.0,North,9.2,-,N/A,,Mostly Cloudy,350,2011-11-02 10:55:00
5:55 AM,28.0,19.9,72,30.43,10.0,NW,8.1,-,N/A,,Clear,320,2011-11-02 11:55:00
6:55 AM,24.1,19.0,81,30.45,10.0,NW,9.2,-,N/A,,Clear,310,2011-11-02 12:55:00
7:55 AM,24.1,19.0,81,30.49,10.0,NW,6.9,-,N/A,,Clear,310,2011-11-02 13:55:00
8:55 AM,30.9,21.9,69,30.50,10.0,WNW,8.1,-,N/A,,Clear,300,2011-11-02 14:55:00
9:55 AM,36.0,19.9,52,30.48,10.0,NW,13.8,-,N/A,,Clear,320,2011-11-02 15:55:00
10:55 AM,42.1,19.0,40,30.48,10.0,NW,12.7,-,N/A,,Clear,320,2011-11-02 16:55:00
11:55 AM,45.0,14.0,29,30.47,10.0,North,12.7,20.7,N/A,,Clear,360,2011-11-02 17:55:00
12:55 PM,45.0,15.1,30,30.45,5.0,NW,12.7,23.0,N/A,,Haze,320,2011-11-02 18:55:00
1:55 PM,46.0,12.9,26,30.42,10.0,NNW,11.5,-,N/A,,Clear,340,2011-11-02 19:55:00
2:55 PM,48.0,12.9,24,30.40,10.0,NNW,9.2,17.3,N/A,,Clear,340,2011-11-02 20:55:00
3:55 PM,46.9,8.1,21,30.40,10.0,North,8.1,-,N/A,,Clear,350,2011-11-02 21:55:00
4:55 PM,45.0,9.0,23,30.41,10.0,NW,4.6,-,N/A,,Clear,310,2011-11-02 22:55:00
5:55 PM,37.0,10.0,33,30.43,10.0,NW,4.6,-,N/A,,Clear,320,2011-11-02 23:55:00
6:55 PM,30.0,12.0,47,30.46,10.0,West,4.6,-,N/A,,Clear,260,2011-11-03 00:55:00
7:55 PM,27.0,10.0,49,30.45,10.0,West,5.8,-,N/A,,Clear,260,2011-11-03 01:55:00
8:55 PM,25.0,10.0,53,30.43,10.0,West,5.8,-,N/A,,Clear,280,2011-11-03 02:55:00
9:55 PM,24.1,12.0,60,30.42,10.0,West,6.9,-,N/A,,Clear,270,2011-11-03 03:55:00
10:55 PM,24.1,17.1,75,30.38,10.0,WNW,4.6,-,N/A,,Clear,290,2011-11-03 04:55:00
11:55 PM,24.1,19.0,81,30.36,10.0,WNW,5.8,-,N/A,,Clear,290,2011-11-03 05:55:00